Location: Maccacari
(45.1333°N, 11.1333°E)
Time: 11:31:22
(UTC+00:00)

Vanguard 2 - Pass Details

Date: 21 January 2021
Orbit: 552 x 2938 km, 32.9° (Epoch: 24 February)

Event Time Altitude Azimuth Distance (km) Brightness Sun altitude
Rises 22:11:20 0° 256° (WSW) 3,938 - -60.1°
Reaches altitude 10° 22:15:21 10° 232° (SW) 3,398 - -60.6°
Maximum altitude 22:19:43 15° 202° (SSW) 3,483 - -61.0°
Drops below altitude 10° 22:25:05 10° 174° (S) 4,357 - -61.5°
Sets 22:31:44 0° 155° (SSE) 5,907 - -62.1°
